E1763 Weather Reports


time (UTC)temp
C
wind
direction
speed
KPH
gust
KPH
rain 1hr
cm
rain 24hr
cm
rain mn
cm
humidity
%
barometer
mb
20260506201523 21 206 0.0 0.0 0.00 0.03 0.03 73 1015.2
20260506200018 20 270 0.0 0.0 0.00 0.03 0.03 72 1015.2
20260506194517 20 286 0.0 0.0 0.00 0.03 0.03 76 1015.3
20260506193022 20 188 0.0 1.6 0.00 0.03 0.03 75 1015.4
20260506191512 19 196 0.0 0.0 0.00 0.03 0.03 78 1015.5
20260506190011 18 258 0.0 8.0 0.00 0.03 0.03 81 1015.6
20260506184505 18 263 0.0 1.6 0.00 0.03 0.03 81 1015.7
20260506183002 18 143 0.0 0.0 0.00 0.03 0.03 82 1015.6
20260506181604 17 166 0.0 0.0 0.00 0.03 0.03 84 1015.7
20260506180056 16 223 0.0 0.0 0.00 0.03 0.03 87 1015.7
20260506174552 16 197 0.0 0.0 0.00 0.03 0.03 89 1015.6
20260506173056 15 180 0.0 0.0 0.00 0.03 0.03 92 1015.7
20260506171545 14 254 0.0 0.0 0.00 0.03 0.03 93 1015.7
20260506170047 13 186 0.0 0.0 0.00 0.03 0.03 94 1015.7
20260506164554 13 178 0.0 0.0 0.00 0.03 0.03 95 1015.9
20260506163041 12 159 0.0 0.0 0.00 0.03 0.03 95 1015.9
20260506161535 12 274 0.0 0.0 0.00 0.03 0.03 96 1015.7
20260506160036 12 251 0.0 0.0 0.03 0.03 0.03 96 1015.7
20260506154532 11 262 0.0 0.0 0.03 0.03 0.03 96 1015.7
20260506153031 11 202 0.0 0.0 0.03 0.03 0.03 96 1015.6
20260506151530 11 252 0.0 0.0 0.03 0.03 0.03 96 1015.6
20260506150028 11 5 0.0 0.0 0.00 0.00 0.00 96 1015.7
20260506144529 11 28 0.0 0.0 0.00 0.00 0.00 96 1015.7
20260506143025 11 24 0.0 0.0 0.00 0.00 0.00 96 1015.7
20260506141529 11 39 0.0 0.0 0.00 0.00 0.00 96 1015.5
20260506140022 11 39 0.0 0.0 0.00 0.00 0.00 96 1015.4
20260506134520 11 300 0.0 0.0 0.00 0.00 0.00 96 1015.3
20260506133019 11 300 0.0 0.0 0.00 0.00 0.00 95 1015.1
20260506131521 11 300 0.0 0.0 0.00 0.00 0.00 95 1015.0
20260506130017 11 300 0.0 0.0 0.00 0.00 0.00 95 1015.0
20260506124516 11 300 0.0 0.0 0.00 0.00 0.00 95 1015.0
20260506123016 10 300 0.0 0.0 0.00 0.00 0.00 95 1014.9
20260506121515 10 300 0.0 0.0 0.00 0.00 0.00 95 1014.9
20260506120028 10 300 0.0 0.0 0.00 0.00 0.00 95 1014.8
20260506114511 10 300 0.0 0.0 0.00 0.00 0.00 95 1014.7
20260506113011 10 291 0.0 0.0 0.00 0.00 0.00 95 1014.7
20260506111509 10 291 0.0 0.0 0.00 0.00 0.00 95 1014.6
20260506110009 11 291 0.0 0.0 0.00 0.00 0.00 95 1014.4
20260506104505 11 291 0.0 0.0 0.00 0.00 0.00 95 1014.3
20260506103015 10 291 0.0 0.0 0.00 0.00 0.00 95 1014.2
20260506101504 11 5 0.0 0.0 0.00 0.00 0.00 95 1013.9
20260506100002 11 5 0.0 0.0 0.00 0.00 0.00 95 1013.9
20260506094604 11 5 0.0 0.0 0.00 0.00 0.00 95 1013.9
20260506093101 11 5 0.0 0.0 0.00 0.00 0.00 94 1013.9
20260506091604 11 5 0.0 0.0 0.00 0.00 0.00 94 1013.8
20260506090104 11 5 0.0 0.0 0.00 0.00 0.00 94 1013.7
20260506084629 11 5 0.0 0.0 0.00 0.00 0.00 94 1013.8
20260506083057 11 5 0.0 0.0 0.00 0.00 0.00 94 1013.8
20260506081600 11 5 0.0 0.0 0.00 0.00 0.00 94 1013.7
20260506073052 11 336 0.0 0.0 0.00 0.00 0.00 94 1013.7
20260506071551 11 336 0.0 0.0 0.00 0.00 0.00 94 1013.5
20260506061544 11 9 0.0 0.0 0.00 0.00 0.00 93 1012.9
20260506044539 11 12 0.0 0.0 0.00 0.00 0.00 93 1012.5
20260506043043 11 219 0.0 0.0 0.00 0.00 0.00 92 1012.3
20260506041534 11 5 0.0 0.0 0.00 0.00 0.00 92 1012.2
20260506040036 11 276 0.0 0.0 0.00 0.00 0.00 91 1012.0
20260506034532 11 248 0.0 0.0 0.00 0.00 0.00 91 1011.7
20260506033027 11 333 0.0 0.0 0.00 0.00 0.00 90 1011.6
20260506031532 12 329 0.0 0.0 0.00 0.00 0.00 90 1011.4
20260506030023 12 336 0.0 0.0 0.00 0.00 0.00 90 1011.2
20260506024522 12 281 0.0 0.0 0.00 0.00 0.00 90 1011.0
20260506023035 12 315 0.0 0.0 0.00 0.00 0.00 89 1010.9
20260506021532 12 280 0.0 0.0 0.00 0.00 0.00 89 1010.8
20260506020024 12 283 0.0 0.0 0.00 0.00 0.00 89 1010.8
20260506014519 12 263 0.0 0.0 0.00 0.00 0.00 88 1010.7
20260506013021 12 24 0.0 0.0 0.00 0.00 0.00 89 1010.7
20260506011516 12 349 0.0 0.0 0.00 0.00 0.00 88 1010.7
20260506010016 13 302 0.0 11.3 0.00 0.00 0.00 87 1010.5
20260506004515 13 250 0.0 0.0 0.00 0.00 0.00 87 1010.6
20260506003016 13 278 0.0 1.6 0.00 0.00 0.00 88 1010.6
20260506001514 13 222 0.0 3.2 0.00 0.00 0.00 88 1010.5
20260506000013 13 34 0.0 9.7 0.00 0.00 0.00 87 1010.5
20260505234514 13 49 0.0 8.0 0.00 0.00 0.00 87 1010.4
20260505233012 13 225 0.0 0.0 0.00 0.00 0.00 86 1010.5
20260505231525 14 190 0.0 0.0 0.00 0.00 0.00 85 1010.6
20260505230021 15 28 0.0 0.0 0.00 0.00 0.00 83 1010.6
20260505224513 15 28 0.0 0.0 0.00 0.00 0.00 84 1010.5
20260505223009 15 169 0.0 0.0 0.00 0.00 0.00 82 1010.6
20260505221508 16 257 0.0 0.0 0.00 0.00 0.00 82 1010.7
20260505220006 16 256 0.0 0.0 0.00 0.00 0.00 81 1010.6
20260505214507 16 214 0.0 0.0 0.00 0.00 0.00 79 1010.6
20260505213014 16 238 0.0 0.0 0.00 0.00 0.00 80 1010.6
20260505211509 16 167 0.0 0.0 0.00 0.00 0.00 80 1010.6
20260505210004 16 188 0.0 0.0 0.00 0.00 0.00 81 1010.6
20260505204503 16 178 0.0 0.0 0.00 0.00 0.00 80 1010.5
20260505203001 16 180 0.0 0.0 0.00 0.00 0.00 81 1010.6